Weather History for Watsonville, CA

Change the Weather History Date:

Wednesday, December 21, 2011

  Actual Average Record
Temperature  
Mean Temperature 48 °F 49 °F  
Max Temperature 62 °F 60 °F 72 °F (1999)
Min Temperature 34 °F 39 °F 25 °F (1998)
Degree Days  
Heating Degree Days 17    
Month to date heating degree days 327  
Since 1 July heating degree days 979  
Cooling Degree Days 0    
Month to date cooling degree days 0  
Year to date cooling degree days 111  
Moisture  
Dew Point 35 °F    
Average Humidity 63    
Maximum Humidity 89    
Minimum Humidity 36    
Precipitation  
Precipitation 0.00 in - 0.81 in (1988)
Month to date precipitation 0.05  
Year to date precipitation 22.47  
Since 1 July precipitation 4.29  
Sea Level Pressure  
Sea Level Pressure 30.08 in    
Wind  
Wind Speed 2 mph (WNW)    
Max Wind Speed 9 mph    
Max Gust Speed 17 mph    
Visibility 10 miles    
Events      
T = Trace of Precipitation, MM = Missing Value Source: NWS Daily Summary

Daily Weather History Graph

Daily Weather History Graph

Search for Another Location

Airport:

Trip Planner

Search our weather history database for the weather conditions in past years. The results will help you decide how hot, cold, wet, or windy it might be!

Date:

Astronomy

Dec. 21, 2011 Rise Set
Actual Time 7:16 AM PST 4:54 PM PST
Civil Twilight 6:47 AM PST 5:23 PM PST
Nautical Twilight 6:14 AM PST 5:55 PM PST
Astronomical Twilight 5:43 AM PST 6:27 PM PST
Moon 3:57 AM PST (12/21) 2:16 PM PST (12/21)
Length of Visible Light 10h 35m
Length of Day
9h 37m
Waning Crescent, 11% of the Moon is Illuminated
Dec 21
Waning Crescent
Dec 24
New
Dec 31
First Quarter
Jan 8
Full
Jan 16
Last Quarter

Hourly Weather History & Observations

Time (PST) Temp. Windchill Dew Point Humidity Pressure Visibility Wind Dir Wind Speed Gust Speed Precip Events Conditions
12:53 AM 42.1 °F - 34.0 °F 73% 30.06 in 10.0 mi Calm Calm - N/A   Clear
1:53 AM 39.9 °F 35.8 °F 34.0 °F 79% 30.08 in 10.0 mi WNW 5.8 mph - N/A   Clear
2:53 AM 39.0 °F 36.8 °F 33.1 °F 79% 30.07 in 10.0 mi WNW 3.5 mph - N/A   Clear
4:53 AM 36.0 °F - 32.0 °F 86% 30.08 in 10.0 mi Calm Calm - N/A   Clear
5:53 AM 35.1 °F - 30.9 °F 85% 30.09 in 10.0 mi Calm Calm - N/A   Clear
6:53 AM 36.0 °F - 32.0 °F 86% 30.09 in 10.0 mi Calm Calm - N/A   Clear
7:53 AM 37.0 °F - 32.0 °F 82% 30.10 in 10.0 mi Calm Calm - N/A   Clear
8:53 AM 43.0 °F - 35.1 °F 74% 30.10 in 10.0 mi Calm Calm - N/A   Clear
10:53 AM 53.1 °F - 36.0 °F 52% 30.10 in 10.0 mi Calm Calm - N/A   Clear
11:53 AM 60.1 °F - 34.0 °F 38% 30.07 in 10.0 mi Calm Calm - N/A   Clear
12:53 PM 62.1 °F - 36.0 °F 38% 30.05 in 10.0 mi Variable 3.5 mph - N/A   Clear
1:53 PM 61.0 °F - 37.9 °F 42% 30.03 in 10.0 mi West 5.8 mph - N/A   Clear
2:53 PM 61.0 °F - 39.9 °F 46% 30.03 in 10.0 mi SW 3.5 mph - N/A   Clear
3:53 PM 60.1 °F - 39.9 °F 47% 30.03 in 10.0 mi SSW 4.6 mph - N/A   Clear
4:53 PM 54.0 °F - 41.0 °F 62% 30.04 in 10.0 mi Calm Calm - N/A   Clear
5:53 PM 51.1 °F - 37.9 °F 61% 30.06 in 10.0 mi NW 5.8 mph - N/A   Clear
6:53 PM 48.0 °F - 37.0 °F 66% 30.08 in 10.0 mi NW 5.8 mph - N/A   Clear
7:53 PM 46.0 °F - 36.0 °F 68% 30.10 in 10.0 mi Calm Calm - N/A   Clear
8:53 PM 43.0 °F 39.5 °F 34.0 °F 71% 30.11 in 10.0 mi NW 5.8 mph - N/A   Clear
9:53 PM 42.1 °F 40.2 °F 32.0 °F 67% 30.11 in 10.0 mi WNW 3.5 mph - N/A   Clear
10:53 PM 41.0 °F 38.0 °F 30.0 °F 65% 30.12 in 10.0 mi North 4.6 mph - N/A   Clear
11:53 PM 41.0 °F 39.0 °F 30.9 °F 67% 30.13 in 10.0 mi NNW 3.5 mph - N/A   Clear